This demonstration page uses our WeatherBlox Daily Observations layout. Learn more.

Left ArrowRight Arrow

Hourly Observations for June 28, 2021

Temp ( °F °C ) Dew Point ( °F °C ) Humidity (%) Winds ( mph kmh ) Pressure ( in mb ) Visibility ( mi km ) Precip ( " mm )
12:53 am 00:53 Clear 85 29.4 63 17.2 48 48 W 5 7 29.64 1004 10 16 0.00 0.00
1:53 am 01:53 Clear 83 28.3 63 17.2 51 51 N 3 6 29.65 1004 10 16 0.00 0.00
2:53 am 02:53 Clear 80 26.7 62 16.7 54 54 NNE 3 6 29.66 1004 10 16 0.00 0.00
3:53 am 03:53 Clear 79 26.1 62 16.7 56 56 N 3 6 29.66 1004 10 16 0.00 0.00
4:53 am 04:53 Clear 77 25 63 17.2 62 62 Calm 29.66 1004 10 16 0.00 0.00
5:53 am 05:53 Sunny 74 23.3 61 16.1 64 64 SE 5 7 29.67 1005 10 16 0.00 0.00
6:53 am 06:53 Sunny 77 25 62 16.7 60 60 SSE 5 7 29.68 1005 10 16 0.00 0.00
7:53 am 07:53 Sunny 79 26.1 59 15 50 50 SSE 6 9 29.69 1006 10 16 0.00 0.00
8:53 am 08:53 Sunny 82 27.8 58 14.4 44 44 S 5 7 29.70 1006 10 16 0.00 0.00
9:53 am 09:53 Sunny 86 30 58 14.4 39 39 SSW 6 9 29.68 1005 10 16 0.00 0.00
10:53 am 10:53 Sunny 90 32.2 59 15 35 35 S 7 11 29.68 1005 10 16 0.00 0.00
11:53 am 11:53 Sunny 94 34.4 58 14.4 30 30 S 7 11 29.67 1005 10 16 0.00 0.00
12:53 pm 12:53 Sunny 97 36.1 59 15 28 28 ESE 9 15 29.66 1005 10 16 0.00 0.00
1:53 pm 13:53 Sunny 101 38.3 58 14.4 24 24 SSW 8 13 29.65 1004 10 16 0.00 0.00
2:53 pm 14:53 Sunny 101 38.3 58 14.4 24 24 SSE 12 19 29.64 1004 10 16 0.00 0.00
3:53 pm 15:53 Sunny 102 38.9 52 11.1 19 19 SSE 8 13 29.63 1003 10 16 0.00 0.00
4:53 pm 16:53 Sunny 103 39.4 50 10 17 17 S 6 9 29.61 1003 10 16 0.00 0.00
5:53 pm 17:53 Sunny 105 40.6 42 5.6 12 12 SSE 13 20 29.59 1002 10 16 0.00 0.00
6:53 pm 18:53 Sunny 103 39.4 45 7.2 14 14 SSW 8 13 29.60 1002 10 16 0.00 0.00
7:53 pm 19:53 Sunny 101 38.3 47 8.3 16 16 SSW 6 9 29.60 1002 10 16 0.00 0.00
8:53 pm 20:53 Clear 95 35 51 10.6 23 23 S 8 13 29.61 1003 10 16 0.00 0.00
9:53 pm 21:53 Clear 90 32.2 56 13.3 32 32 SSE 5 7 29.64 1004 10 16 0.00 0.00
10:53 pm 22:53 Clear 86 30 57 13.9 37 37 ESE 7 11 29.65 1004 10 16 0.00 0.00
11:53 pm 23:53 Clear 86 30 59 15 40 40 Calm 29.66 1005 10 16 0.00 0.00

Powered by AerisWeather